Regional Weather Roundup
Issued by NWS

Home | Current Version | Previous Version | Text Only | Print | Product List | Glossary Off
Versions: 1 2 3 4 5 6 7 8 9 10 11 12 13 14 15 16 17 18 19 20 21 22 23 24 25 26 27 28 29 30 31 32 33 34 35 36 37 38 39 40 41 42 43 44 45 46 47 48 49 50

000
ASUS43 KOAX 241610
RWRNE

WEATHER ROUNDUP FOR NEBRASKA
NATIONAL WEATHER SERVICE OMAHA NE
1100 AM CDT FRI APR 24 2015

NOTES: SATELLITE DATA IS BEING USED TO AUGMENT CLOUD COVER ABOVE
       12000 FEET.
       "FAIR" INDICATES FEW OR NO CLOUDS BELOW 12,000 FEET WITH NO
       SIGNIFICANT WEATHER AND/OR OBSTRUCTIONS TO VISIBILITY.

  * THESE STATIONS DO NOT REPORT WEATHER SUCH AS RAIN...SNOW OR FOG.

NEZ001>004-019>022-054>056-241700-
NEBRASKA PANHANDLE

CITY           SKY/WX    TMP DP  RH WIND       PRES   REMARKS
SCOTTSBLUFF    MOSUNNY   61  38  42 W12G21    29.66F
ALLIANCE       MOSUNNY   62  38  40 W12G22    29.64F
CHADRON        MOSUNNY   60  44  55 W9        29.62F
KIMBALL        SUNNY     62  34  35 W15       29.68F
SIDNEY         SUNNY     61  45  55 W8        29.69F
$$

NEZ057>060-069>072-079>082-241700-
SOUTHWEST NEBRASKA

CITY           SKY/WX    TMP DP  RH WIND       PRES   REMARKS
IMPERIAL       CLOUDY    56  51  84 VRB7      29.66F
LEXINGTON      PTSUNNY   61  56  82 S13       29.66F
MCCOOK         MOSUNNY   63  54  72 S9        29.64F
OGALLALA       CLOUDY    57  52  85 W9        29.66F
$$

NEZ005>010-023>029-035>040-094-241700-
NORTH CENTRAL NEBRASKA

CITY           SKY/WX    TMP DP  RH WIND       PRES   REMARKS
VALENTINE      MOSUNNY   68  43  40 SW12      29.59F
AINSWORTH      MOSUNNY   67  49  52 SW17      29.61S
BROKEN BOW     MOSUNNY   64  53  67 S13       29.66S
O`NEILL        MOSUNNY   66  52  59 SW13      29.62F
ORD            MOSUNNY   63  50  62 S14       29.65F
THEDFORD       MOSUNNY   65  51  60 S8        29.64F
$$

NEZ041-046>049-061>064-073>077-083>087-241700-
SOUTH CENTRAL NEBRASKA

CITY           SKY/WX    TMP DP  RH WIND       PRES   REMARKS
GRAND ISLAND   CLOUDY    57  52  83 S12       29.70F
AURORA         CLOUDY    57  55  92 S9        29.70F
HASTINGS       CLOUDY    56  54  93 S8        29.69F FOG
HEBRON         CLOUDY    58  52  80 S8        29.72S
HOLDREGE       FOG       55  55  97 S6        29.68F VSB 1/2
KEARNEY *      CLOUDY    55  54  94 S7        29.69S
YORK           CLOUDY    57  54  88 S12       29.72F
$$

NEZ011>018-030>034-042>045-241700-
NORTHEAST NEBRASKA

CITY           SKY/WX    TMP DP  RH WIND       PRES   REMARKS
NORFOLK        SUNNY     63  51  65 S17       29.67F
ALBION         SUNNY     64  49  59 S14G20    29.67F
BLAIR          CLOUDY    60  48  64 S16       29.73S
COLUMBUS *     PTSUNNY   63  50  63 SW14      29.72S
FREMONT        CLOUDY    62  52  69 S14       29.72F
TEKAMAH        LGT RAIN  64  51  62 S20       29.71F
WAYNE          PTSUNNY   62  53  72 S15G21    29.68F
$$

NEZ050>053-065>068-078-088>093-241700-
SOUTHEAST NEBRASKA

CITY           SKY/WX    TMP DP  RH WIND       PRES   REMARKS
LINCOLN        CLOUDY    59  52  77 S13       29.74S
OMAHA EPPLEY   CLOUDY    60  47  61 S16       29.73F
BEATRICE       CLOUDY    59  52  76 S12       29.73F
FALLS CITY     CLOUDY    58  47  66 S17       29.76F
NEBRASKA CITY  CLOUDY    58  47  64 S17       29.75F
PLATTSMOUTH    CLOUDY    58  46  63 S15G21    29.75S
$$

NEZ044-045-051>053-067-241700-
OMAHA AREA

CITY           SKY/WX    TMP DP  RH WIND       PRES   REMARKS
OMAHA EPPLEY   CLOUDY    60  47  61 S16       29.73F
BLAIR          CLOUDY    60  48  64 S16       29.73S
FREMONT        CLOUDY    62  52  69 S14       29.72F
MILLARD        CLOUDY    60  49  68 S10G17    29.74S
OFFUTT AFB     CLOUDY    60  48  64 S13       29.74S
PLATTSMOUTH    CLOUDY    58  46  63 S15G21    29.75S
WAHOO          CLOUDY    61  50  67 S13       29.73S
$$



USA.gov is the U.S. government's official web portal to all federal, state and local government web resources and services.